Cloud_Cover
82 100 100 100 100 100 97 84 95 91 40 1 0 0 0 0 0 0 0 0 0 0 0 0 0 12 7 5 2 0 0 0 0 0 0 0 0 3 94 100 99 92 100 100 100 94 100 85 14
61 98 100 100 100 98 83 23 67 100 41 4 0 0 0 0 0 0 0 0 0 0 0 0 0 0 0 0 0 0 0 0 0 0 0 0 0 0 0 0 4 82 93 100 93 40 30 75 99
84 100 100 100 53 64 39 98 100 100 31 5 3 0 0 0 0 0 0 0 0 0 0 0 0 0 0 0 0 0 0 0 0 0 0 0 0 0 0 0 0 0 1 3 17 7 40 100 87
89 100 100 100 10 15 38 100 100 90 18 5 5 4 0 0 0 0 0 0 0 0 0 0 0 0 0 0 0 0 0 0 0 0 0 0 0 0 0 0 0 0 0 0 0 0 1 5 12
98 100 100 75 5 29 48 100 100 98 88 56 5 70 16 0 2 1 0 0 0 0 0 0 0 0 0 0 0 0 0 0 0 0 0 0 0 0 0 0 0 0 0 0 2 0 2 1 1
100 100 98 5 25 16 93 96 100 100 100 88 88 100 16 0 5 5 0 0 0 0 0 0 0 0 0 0 0 0 0 0 0 0 0 0 0 0 0 0 0 0 0 1 2 5 3 0 0
100 100 97 12 50 46 46 5 34 91 100 100 90 99 5 5 5 5 0 0 0 0 0 0 0 0 0 0 0 0 0 0 0 0 0 0 0 0 0 0 0 0 0 0 0 0 0 0 0
100 100 46 9 5 5 5 5 5 5 7 12 47 58 5 5 3 5 0 0 0 0 0 0 0 0 0 0 0 0 0 0 0 0 0 0 0 0 0 0 0 0 0 0 0 0 0 0 0
100 49 14 5 45 28 0 1 5 5 5 5 38 5 5 0 0 0 0 0 0 0 0 0 0 0 0 0 0 0 0 0 0 0 0 0 0 0 0 0 0 0 0 0 0 0 0 0 0
21 5 1 63 97 0 0 0 3 2 2 3 5 4 0 0 0 0 0 0 0 0 0 0 0 0 0 0 0 0 0 0 0 0 0 0 0 0 0 0 0 0 0 0 0 0 0 0 0
5 5 14 100 7 0 0 0 0 0 0 0 0 0 0 0 0 0 0 0 0 0 0 0 0 0 0 0 0 0 0 0 0 0 0 0 0 0 0 0 0 0 0 0 0 0 0 0 0
5 11 100 61 0 0 0 0 0 0 0 0 0 0 0 0 0 0 0 0 0 0 0 0 0 0 0 0 0 0 0 0 0 0 0 0 0 0 0 0 0 0 0 0 0 0 0 0 0
33 100 98 0 0 0 0 0 0 0 0 0 0 0 0 0 0 0 0 0 0 0 0 0 0 0 0 0 0 0 0 0 0 0 0 0 0 0 0 0 0 0 0 0 0 0 0 0 0
82 95 5 1 0 0 0 0 0 0 0 0 0 0 0 0 0 0 0 0 0 0 0 0 0 0 0 0 0 0 0 0 0 0 0 0 0 0 0 0 0 0 0 0 0 0 2 0 0
6 0 5 0 0 0 0 0 0 0 0 0 0 0 0 0 0 0 0 0 0 0 0 0 0 0 0 0 0 0 0 0 0 2 0 4 0 0 0 0 0 0 0 0 0 3 1 0 0
0 0 0 0 0 0 0 0 0 0 0 0 0 0 0 0 0 0 0 0 0 0 0 0 2 0 0 100 58 8 5 90 23 5 5 3 3 0 0 0 1 0 0 0 5 5 0 0 0
0 0 0 0 1 1 9 1 0 0 0 0 0 0 0 0 0 0 0 0 0 0 0 5 34 96 100 100 100 84 5 5 48 7 5 11 5 5 0 4 1 5 0 0 5 5 0 5 5
0 0 3 3 52 7 99 98 97 2 4 0 9 42 0 0 0 0 0 0 4 0 0 6 48 15 99 100 100 100 20 7 42 20 4 5 5 5 4 0 5 5 5 1 5 5 5 5 5
0 5 18 5 35 56 57 100 100 100 100 8 6 100 66 0 4 0 0 0 5 4 0 0 5 15 81 100 100 100 100 24 39 100 5 5 5 5 5 2 5 5 5 0 5 5 5 5 19
0 0 36 93 100 100 100 100 100 100 100 100 53 100 69 10 100 100 48 0 14 12 0 1 3 55 100 100 100 100 100 100 100 100 25 5 25 5 5 5 5 5 5 0 5 5 9 76 71
0 2 2 5 26 99 100 100 100 46 66 100 100 38 8 78 100 100 84 72 5 98 47 40 7 100 100 100 100 98 100 100 100 100 54 8 42 23 5 5 8 6 5 4 5 5 6 91 98
5 5 5 5 5 5 42 85 9 5 24 5 16 100 82 4 17 15 97 100 5 70 100 100 100 100 100 100 100 100 100 100 74 100 48 34 14 44 5 5 11 5 5 4 5 5 5 70 98
5 6 55 98 47 45 69 56 21 4 5 5 5 5 5 4 5 4 5 5 64 97 91 71 100 100 100 100 100 100 100 100 100 100 100 42 53 49 6 59 64 28 5 5 5 5 5 11 5
60 37 100 100 100 100 14 6 100 5 5 12 5 36 5 4 5 5 5 29 100 100 6 5 75 89 90 91 67 17 8 59 100 100 100 9 72 13 99 73 69 43 5 5 5 0 5 5 5
74 83 100 100 97 100 49 86 63 5 6 61 26 5 66 6 5 5 6 26 100 40 7 12 1 2 5 5 90 100 100 100 100 100 100 91 95 13 100 100 98 26 5 5 5 0 5 5 5
60 47 66 64 100 100 100 100 100 5 5 17 33 36 4 5 42 5 45 99 51 24 5 5 4 5 0 25 100 100 96 100 100 100 100 100 81 49 99 100 88 36 5 5 5 0 0 5 5
83 100 88 22 76 98 32 100 100 100 71 3 3 39 10 5 23 100 54 53 13 43 60 100 38 5 8 5 80 20 96 100 100 100 100 100 96 83 90 99 38 89 14 5 2 0 0 2 5
56 47 17 18 5 45 36 99 100 100 100 6 5 7 27 13 27 74 100 90 99 97 94 100 97 99 100 5 5 47 28 100 100 100 100 100 96 97 100 100 64 93 72 5 5 0 0 0 0
13 8 5 11 35 5 76 92 100 100 51 17 71 100 100 96 78 100 100 97 100 100 100 100 100 100 100 19 80 100 100 100 100 100 100 100 99 100 100 100 84 95 99 5 5 0 0 0 0
6 18 100 100 100 2 98 97 98 90 21 5 5 5 100 100 100 61 100 100 99 100 100 100 100 100 100 100 100 100 100 100 100 100 100 100 100 100 100 100 99 100 99 5 5 0 0 0 0